Regional Weather Roundup
Issued by NWS

Home | Current Version | Previous Version | Text Only | Print | Product List | Glossary On
Versions: 1 2 3 4 5 6 7 8 9 10 11 12 13 14 15 16 17 18 19 20 21 22 23 24 25 26 27 28 29 30 31 32 33 34 35 36 37 38 39 40 41 42 43 44 45 46 47 48 49 50
000
ASUS43 KDTX 221110
RWRMI
MICHIGAN HOURLY REGIONAL WEATHER ROUNDUP
NATIONAL WEATHER SERVICE DETROIT/PONTIAC MI
600 AM EST THU FEB 22 2018

NOTE: "FAIR" INDICATES FEW OR NO CLOUDS BELOW 12,000 FEET WITH NO
SIGNIFICANT WEATHER AND/OR OBSTRUCTION TO VISIBILITY.

MIZ047>049-052>055-059>063-066>070-074>076-081>083-221200-
SOUTHEAST LOWER MICHIGAN

CITY           SKY/WX    TMP DP  RH WIND       PRES   REMARKS
ADRIAN         CLOUDY    30  25  81 E13       30.55F WCI  20
ALMA           MOCLDY    29  28  96 E9        30.60S WCI  21
ANN ARBOR      CLOUDY    29  25  85 NE7       30.56S WCI  22
BAD AXE        CLOUDY    28  23  82 NE5       30.63F WCI  22
CARO           CLOUDY    28  24  85 NE7       30.62S WCI  21
DETROIT CITY   FAIR      29  22  75 NE8       30.59S WCI  21
DETROIT        CLOUDY    31  23  72 NE10      30.58S WCI  22
FLINT          CLOUDY    28  25  88 E12       30.60R WCI  18
GROSSE ILE     CLOUDY    30  25  81 NE12      30.57S WCI  21
HILLSDALE      FAIR      30  27  86 E9        30.51R WCI  22
HOWELL         FAIR      29  27  90 NE7       30.57R WCI  22

CITY           SKY/WX    TMP DP  RH WIND       PRES   REMARKS
JACKSON        FAIR      31  27  85 NE9       30.54S WCI  23
LAMBERTVILLE   CLOUDY    31  26  81 E9        30.55F WCI  23
LANSING        FAIR      30  26  85 E8        30.57F WCI  22
LAPEER         CLOUDY    28  24  84 E6        30.61R WCI  22
MASON          FAIR      32  26  78 E8        30.57R WCI  24
MONROE         CLOUDY    31  24  77 NE8       30.57S WCI  23
MT. CLEMENS    CLOUDY    29  26  89 NE9       30.59S WCI  21
PONTIAC        MOCLDY    28  24  85 NE9       30.56S WCI  19
PORT HOPE        N/A     30  22  72 E13       30.63S WCI  20
PORT HURON     FAIR      28  21  74 NE7       30.61S WCI  21
TRI CITIES     CLOUDY    29  24  82 E10       30.62F WCI  20
MIDLAND        CLOUDY    29  25  86 E6        30.62S WCI  23
TROY           FAIR      30  24  78 NE7       30.60F WCI  23
SAGINAW HB     CLOUDY    30  27  86 E10       30.62S WCI  21
$$
MIZ043>046-050>051-056>058-064>065-071>073-077>080-221200-
SOUTHWEST LOWER MICHIGAN

CITY           SKY/WX    TMP DP  RH WIND       PRES   REMARKS
BATTLE CREEK   FAIR      32  27  81 E9        30.53F WCI  24
BENTON HARBOR  FAIR      31  25  78 N5        30.55R WCI  26
BIG RAPIDS     FAIR      25  20  80 E3        30.58F
COLDWATER      FAIR      32  30  92 NE8       30.51F WCI  25
FREMONT        FAIR      26  18  70 E5        30.59R WCI  21
HOLLAND        FAIR      30  23  75 E7        30.57R WCI  23
GRAND RAPIDS   CLOUDY    30  23  75 NE7       30.56S WCI  23
IONIA          FAIR      30  27  86 NE8       30.55F WCI  23
KALAMAZOO      FAIR      32  27  81 E8        30.53F WCI  25
LUDINGTON      CLOUDY    24  20  85 CALM      30.60F
MARSHALL       FAIR      31  28  90 NE5       30.53F WCI  26
MOUNT PLEASANT CLOUDY    29  26  88 E6        30.61R WCI  23
MUSKEGON       FAIR      27  19  72 NE7       30.59S WCI  19
SOUTH HAVEN    FAIR      31  26  80 NE6       30.55R WCI  25
$$
MIZ016>042-221200-
NORTHERN LOWER MICHIGAN

CITY           SKY/WX    TMP DP  RH WIND       PRES   REMARKS
ALPENA         FAIR      20  18  92 NW5       30.67S WCI  13
BEAVER ISLAND  FAIR      15  13  92 CALM      30.65S
BELLAIRE       FAIR      19  19 100 CALM      30.65F
CADILLAC       CLOUDY    21  18  91 E6        30.55F WCI  13
CHARLEVOIX     FAIR      19  18  96 CALM      30.67F
FRANKFORT      FAIR      24  17  73 CALM      30.61F
GAYLORD        FAIR      18  17  96 E3        30.59F
GRAYLING       CLOUDY    20  17  91 E6        30.59F WCI  12
HARBOR SPRINGS FAIR      15  14  94 NE3       30.64F
HOUGHTON LAKE  CLOUDY    23  19  85 E6        30.60S WCI  16
MANISTEE       CLOUDY    23  19  85 E5        30.61F WCI  17
OSCODA         FAIR      24  18  78 N3        30.65R
PELLSTON       FAIR      14  10  84 CALM      30.66F
ROGERS CITY    MOCLDY    19  16  90 CALM      30.67F
TRAVERSE CITY  FAIR      23  18  81 E3        30.61F
$$
MIZ007>008-015-221200-
EASTERN UPPER MICHIGAN

CITY           SKY/WX    TMP DP  RH WIND       PRES   REMARKS
KINROSS        FAIR       9   6  88 SE3       30.66R
MACKINAC ISLAN FAIR      16  13  91 SE6       30.66S WCI   7
NEWBERRY       FAIR       6   6  97 CALM      30.63F
S. S. MARIE    FAIR       9   4  80 CALM      30.66S
MUNISING         N/A      1  -1  91 S8        30.64R WCI -13
$$
MIZ004>006-011>014-085-221200-
CENTRAL UPPER MICHIGAN

CITY           SKY/WX    TMP DP  RH WIND       PRES   REMARKS
MANISTIQUE     FAIR       6   5  94 CALM      30.64S
ESCANABA       MOCLDY     5   2  87 CALM      30.65S
MENOMINEE      FAIR      16  11  80 VRB3      30.66R
SAWYER-GWINN   FAIR      -1  -6  82 CALM      30.60R
$$
MIZ001>003-009>011-084-221200-
WESTERN UPPER MICHIGAN

CITY           SKY/WX    TMP DP  RH WIND       PRES   REMARKS
IRON MOUNTAIN  FAIR       6   2  83 CALM      30.59R
HOUGHTON       FAIR       2  -4  76 NW10      30.58S WCI -14
COPPER HARBOR    N/A     10   4  76 W6        30.62S WCI   0
IRONWOOD       FAIR      -8 -11  86 E3        30.61R
$$

ABBREVIATIONS USED IN REMARKS
   TC - TEMPERATURE IN CELSIUS
  WCI - WIND CHILL INDEX
   HX - HEAT INDEX
  VSB - VISIBILITY





USA.gov is the U.S. government's official web portal to all federal, state and local government web resources and services.